Time,TemperatureF,DewpointF,PressureIn,WindDirection,WindDirectionDegrees,WindSpeedMPH,WindSpeedGustMPH,Humidity,HourlyPrecipIn,Conditions,Clouds,dailyrainin,SoftwareType,DateUTC
2013-05-28 00:03:00,53.2,31.3,29.93,SSE,158,3.6,3.6,43,0.00,,---,0.00,VWS V13.01,2013-05-28 05:03:00,
2013-05-28 00:08:00,54.3,31.7,29.93,SSE,161,4.0,4.0,42,0.00,,---,0.00,VWS V13.01,2013-05-28 05:08:00,
2013-05-28 00:13:00,55.2,32.0,29.93,South,170,4.0,4.7,41,0.00,,---,0.00,VWS V13.01,2013-05-28 05:13:00,
2013-05-28 00:18:00,55.9,31.4,29.93,SSE,164,4.0,4.5,39,0.00,,---,0.00,VWS V13.01,2013-05-28 05:18:00,
2013-05-28 00:24:00,56.1,31.5,29.93,SSE,165,3.6,3.6,39,0.00,,---,0.00,VWS V13.01,2013-05-28 05:24:00,
2013-05-28 00:29:00,55.9,31.4,29.93,SSE,165,3.1,3.1,39,0.00,,---,0.00,VWS V13.01,2013-05-28 05:29:00,
2013-05-28 00:34:00,55.8,31.2,29.93,SSE,165,2.7,3.1,39,0.00,,---,0.00,VWS V13.01,2013-05-28 05:34:00,
2013-05-28 00:39:00,55.4,30.9,29.93,SSE,165,0.0,0.0,39,0.00,,---,0.00,VWS V13.01,2013-05-28 05:39:00,
2013-05-28 00:44:00,55.0,30.5,29.93,SSE,165,0.0,0.0,39,0.00,,---,0.00,VWS V13.01,2013-05-28 05:44:00,
2013-05-28 00:49:00,54.9,30.4,29.93,SSE,165,0.0,0.0,39,0.00,,---,0.00,VWS V13.01,2013-05-28 05:49:00,
2013-05-28 00:54:00,54.7,30.9,29.93,SSE,165,0.0,0.0,40,0.00,,---,0.00,VWS V13.01,2013-05-28 05:54:00,
2013-05-28 00:59:00,54.5,30.7,29.93,SSE,165,0.0,0.0,40,0.00,,---,0.00,VWS V13.01,2013-05-28 05:59:00,
2013-05-28 01:04:00,54.5,30.7,29.93,SSE,165,0.0,0.0,40,0.00,,---,0.00,VWS V13.01,2013-05-28 06:04:00,
2013-05-28 01:09:00,54.3,30.5,29.93,SSE,165,0.0,0.0,40,0.00,,---,0.00,VWS V13.01,2013-05-28 06:09:00,
2013-05-28 01:15:00,54.3,31.1,29.93,SSE,165,0.0,0.0,41,0.00,,---,0.00,VWS V13.01,2013-05-28 06:15:00,
2013-05-28 01:20:00,54.1,31.0,29.93,SSE,165,0.0,0.0,41,0.00,,---,0.00,VWS V13.01,2013-05-28 06:20:00,
2013-05-28 01:25:00,54.3,31.1,29.93,SSE,165,0.0,0.0,41,0.00,,---,0.00,VWS V13.01,2013-05-28 06:25:00,
2013-05-28 01:30:00,54.5,31.3,29.93,SSE,165,0.0,0.0,41,0.00,,---,0.00,VWS V13.01,2013-05-28 06:30:00,
2013-05-28 01:35:00,54.7,31.5,29.93,SSE,165,0.0,0.0,41,0.00,,---,0.00,VWS V13.01,2013-05-28 06:35:00,
2013-05-28 01:40:00,54.9,31.6,29.93,SSE,165,0.0,0.0,41,0.00,,---,0.00,VWS V13.01,2013-05-28 06:40:00,
2013-05-28 01:45:00,55.0,31.8,29.90,SSE,165,0.0,0.0,41,0.00,,---,0.00,VWS V13.01,2013-05-28 06:45:00,
2013-05-28 01:50:00,55.0,31.8,29.90,SSE,165,0.0,0.0,41,0.00,,---,0.00,VWS V13.01,2013-05-28 06:50:00,
2013-05-28 01:55:00,55.0,31.8,29.90,SSE,165,0.0,0.0,41,0.00,,---,0.00,VWS V13.01,2013-05-28 06:55:00,
2013-05-28 02:01:00,54.9,31.6,29.90,SSE,165,0.0,0.0,41,0.00,,---,0.00,VWS V13.01,2013-05-28 07:01:00,
2013-05-28 02:06:00,54.9,31.6,29.90,SSE,165,0.0,0.0,41,0.00,,---,0.00,VWS V13.01,2013-05-28 07:06:00,
2013-05-28 02:11:00,54.7,31.5,29.90,SSE,165,0.0,0.0,41,0.00,,---,0.00,VWS V13.01,2013-05-28 07:11:00,
2013-05-28 02:16:00,54.7,32.1,29.90,SSE,165,0.0,0.0,42,0.00,,---,0.00,VWS V13.01,2013-05-28 07:16:00,
2013-05-28 02:21:00,54.7,32.1,29.90,SSE,165,0.0,0.0,42,0.00,,---,0.00,VWS V13.01,2013-05-28 07:21:00,
2013-05-28 02:26:00,54.7,32.1,29.90,SSE,165,0.0,0.0,42,0.00,,---,0.00,VWS V13.01,2013-05-28 07:26:00,
2013-05-28 02:31:00,54.7,32.1,29.90,SSE,165,0.0,0.0,42,0.00,,---,0.00,VWS V13.01,2013-05-28 07:31:00,
2013-05-28 02:36:00,54.5,32.5,29.90,SSE,165,0.0,0.0,43,0.00,,---,0.00,VWS V13.01,2013-05-28 07:36:00,
2013-05-28 02:41:00,54.3,31.7,29.90,SSE,165,0.0,0.0,42,0.00,,---,0.00,VWS V13.01,2013-05-28 07:41:00,
2013-05-28 02:46:00,54.3,32.3,29.90,SSE,165,0.0,0.0,43,0.00,,---,0.00,VWS V13.01,2013-05-28 07:46:00,
2013-05-28 02:51:00,54.3,32.9,29.90,SSE,165,0.0,0.0,44,0.00,,---,0.00,VWS V13.01,2013-05-28 07:51:00,
2013-05-28 02:57:00,54.5,33.0,29.90,SSE,165,0.0,0.0,44,0.00,,---,0.00,VWS V13.01,2013-05-28 07:57:00,
2013-05-28 03:02:00,54.5,33.0,29.90,SSE,165,0.0,0.0,44,0.00,,---,0.00,VWS V13.01,2013-05-28 08:02:00,
2013-05-28 03:07:00,54.7,33.2,29.90,SSE,165,0.0,0.0,44,0.00,,---,0.00,VWS V13.01,2013-05-28 08:07:00,
2013-05-28 03:12:00,54.7,33.2,29.90,SSE,165,0.0,0.0,44,0.00,,---,0.00,VWS V13.01,2013-05-28 08:12:00,
2013-05-28 03:17:00,54.7,33.2,29.87,SSE,165,0.0,0.0,44,0.00,,---,0.00,VWS V13.01,2013-05-28 08:17:00,
2013-05-28 03:22:00,54.7,32.6,29.87,ESE,110,0.0,0.0,43,0.00,,---,0.00,VWS V13.01,2013-05-28 08:22:00,
2013-05-28 03:27:00,54.9,32.8,29.87,ESE,110,0.0,0.0,43,0.00,,---,0.00,VWS V13.01,2013-05-28 08:27:00,
2013-05-28 03:32:00,54.9,32.8,29.87,ESE,110,0.0,0.0,43,0.00,,---,0.00,VWS V13.01,2013-05-28 08:32:00,
2013-05-28 03:37:00,54.7,32.6,29.87,ENE,60,0.0,0.0,43,0.00,,---,0.00,VWS V13.01,2013-05-28 08:37:00,
2013-05-28 03:43:00,54.3,32.9,29.87,ENE,76,0.0,0.0,44,0.00,,---,0.00,VWS V13.01,2013-05-28 08:43:00,
2013-05-28 03:48:00,54.0,32.0,29.87,East,79,0.0,0.0,43,0.00,,---,0.00,VWS V13.01,2013-05-28 08:48:00,
2013-05-28 03:53:00,53.4,32.1,29.87,East,87,0.0,0.0,44,0.00,,---,0.00,VWS V13.01,2013-05-28 08:53:00,
2013-05-28 03:58:00,53.1,31.7,29.87,ENE,71,0.0,0.0,44,0.00,,---,0.00,VWS V13.01,2013-05-28 08:58:00,
2013-05-28 04:03:00,52.7,31.4,29.87,East,91,0.0,0.0,44,0.00,,---,0.00,VWS V13.01,2013-05-28 09:03:00,
2013-05-28 04:08:00,52.5,31.8,29.87,East,91,0.0,0.0,45,0.00,,---,0.00,VWS V13.01,2013-05-28 09:08:00,
2013-05-28 04:13:00,52.7,32.0,29.87,East,91,0.0,0.0,45,0.00,,---,0.00,VWS V13.01,2013-05-28 09:13:00,
2013-05-28 04:18:00,52.7,32.0,29.87,East,91,0.0,0.0,45,0.00,,---,0.00,VWS V13.01,2013-05-28 09:18:00,
2013-05-28 04:23:00,52.7,32.0,29.87,East,91,0.0,0.0,45,0.00,,---,0.00,VWS V13.01,2013-05-28 09:23:00,
2013-05-28 04:28:00,52.9,32.7,29.87,East,100,0.0,0.0,46,0.00,,---,0.00,VWS V13.01,2013-05-28 09:28:00,
2013-05-28 04:33:00,53.1,32.8,29.87,East,100,0.0,0.0,46,0.00,,---,0.00,VWS V13.01,2013-05-28 09:33:00,
2013-05-28 04:38:00,53.4,32.6,29.87,East,100,0.0,0.0,45,0.00,,---,0.00,VWS V13.01,2013-05-28 09:38:00,
2013-05-28 04:43:00,53.4,32.6,29.87,East,100,0.0,0.0,45,0.00,,---,0.00,VWS V13.01,2013-05-28 09:43:00,
2013-05-28 04:49:00,53.4,33.2,29.87,East,100,0.0,0.0,46,0.00,,---,0.00,VWS V13.01,2013-05-28 09:49:00,
2013-05-28 04:54:00,53.1,32.8,29.87,NE,42,0.0,0.0,46,0.00,,---,0.00,VWS V13.01,2013-05-28 09:54:00,
2013-05-28 04:59:00,53.1,32.8,29.87,ENE,70,0.0,0.0,46,0.00,,---,0.00,VWS V13.01,2013-05-28 09:59:00,
2013-05-28 05:04:00,52.9,32.7,29.87,East,96,0.0,0.0,46,0.00,,---,0.00,VWS V13.01,2013-05-28 10:04:00,
2013-05-28 05:09:00,52.7,32.5,29.87,East,96,0.0,0.0,46,0.00,,---,0.00,VWS V13.01,2013-05-28 10:09:00,
2013-05-28 05:14:00,52.7,32.5,29.87,East,96,0.0,0.0,46,0.00,,---,0.00,VWS V13.01,2013-05-28 10:14:00,
2013-05-28 05:19:00,52.5,32.3,29.87,East,96,0.0,0.0,46,0.00,,---,0.00,VWS V13.01,2013-05-28 10:19:00,
2013-05-28 05:24:00,52.7,32.5,29.87,East,96,0.0,0.0,46,0.00,,---,0.00,VWS V13.01,2013-05-28 10:24:00,
2013-05-28 05:29:00,52.7,32.5,29.87,East,96,0.0,0.0,46,0.00,,---,0.00,VWS V13.01,2013-05-28 10:29:00,
2013-05-28 05:34:00,52.9,33.2,29.87,East,96,0.0,0.0,47,0.00,,---,0.00,VWS V13.01,2013-05-28 10:34:00,
2013-05-28 05:39:00,53.1,32.8,29.87,East,96,0.0,0.0,46,0.00,,---,0.00,VWS V13.01,2013-05-28 10:39:00,
2013-05-28 05:45:00,53.1,32.8,29.87,East,96,0.0,0.0,46,0.00,,---,0.00,VWS V13.01,2013-05-28 10:45:00,
2013-05-28 05:50:00,53.2,33.0,29.87,East,96,0.0,0.0,46,0.00,,---,0.00,VWS V13.01,2013-05-28 10:50:00,
2013-05-28 05:55:00,53.4,33.2,29.87,East,96,0.0,0.0,46,0.00,,---,0.00,VWS V13.01,2013-05-28 10:55:00,
2013-05-28 06:00:00,53.6,33.3,29.87,East,96,0.0,0.0,46,0.00,,---,0.00,VWS V13.01,2013-05-28 11:00:00,
2013-05-28 06:05:00,53.6,33.3,29.87,East,82,0.0,0.0,46,0.00,,---,0.00,VWS V13.01,2013-05-28 11:05:00,
2013-05-28 06:10:00,53.6,33.3,29.87,ESE,104,0.0,0.0,46,0.00,,---,0.00,VWS V13.01,2013-05-28 11:10:00,
2013-05-28 06:15:00,53.8,33.5,29.87,East,92,0.0,0.0,46,0.00,,---,0.00,VWS V13.01,2013-05-28 11:15:00,
2013-05-28 06:20:00,53.8,33.5,29.87,East,90,0.0,0.0,46,0.00,,---,0.00,VWS V13.01,2013-05-28 11:20:00,
2013-05-28 06:25:00,54.0,33.1,29.87,East,90,0.0,0.0,45,0.00,,---,0.00,VWS V13.01,2013-05-28 11:25:00,
2013-05-28 06:30:00,54.0,33.1,29.84,ENE,73,0.0,0.0,45,0.00,,---,0.00,VWS V13.01,2013-05-28 11:30:00,
2013-05-28 06:35:00,54.0,33.1,29.84,ENE,78,0.0,0.0,45,0.00,,---,0.00,VWS V13.01,2013-05-28 11:35:00,
2013-05-28 06:40:00,54.0,33.7,29.84,East,98,0.0,0.0,46,0.00,,---,0.00,VWS V13.01,2013-05-28 11:40:00,
2013-05-28 06:45:00,54.0,33.7,29.84,East,97,0.0,0.0,46,0.00,,---,0.00,VWS V13.01,2013-05-28 11:45:00,
2013-05-28 06:50:00,54.0,33.7,29.84,East,97,0.0,0.0,46,0.00,,---,0.00,VWS V13.01,2013-05-28 11:50:00,
2013-05-28 06:55:00,54.1,33.8,29.84,East,94,0.0,0.0,46,0.00,,---,0.00,VWS V13.01,2013-05-28 11:55:00,
2013-05-28 07:00:00,54.3,34.0,29.84,East,94,0.0,0.0,46,0.00,,---,0.00,VWS V13.01,2013-05-28 12:00:00,
2013-05-28 07:05:00,54.5,33.6,29.84,East,95,0.0,0.0,45,0.00,,---,0.00,VWS V13.01,2013-05-28 12:05:00,
2013-05-28 07:10:00,54.7,33.8,29.84,East,94,0.0,0.0,45,0.00,,---,0.00,VWS V13.01,2013-05-28 12:10:00,
2013-05-28 07:15:00,54.9,33.9,29.84,East,95,0.0,0.0,45,0.00,,---,0.00,VWS V13.01,2013-05-28 12:15:00,
2013-05-28 07:20:00,55.0,34.1,29.84,East,95,0.0,0.0,45,0.00,,---,0.00,VWS V13.01,2013-05-28 12:20:00,
2013-05-28 07:25:00,55.0,34.1,29.84,ENE,60,0.0,0.0,45,0.00,,---,0.00,VWS V13.01,2013-05-28 12:25:00,
2013-05-28 07:30:00,55.0,34.1,29.84,ENE,75,0.0,0.0,45,0.00,,---,0.00,VWS V13.01,2013-05-28 12:30:00,
2013-05-28 07:35:00,54.9,33.9,29.84,ENE,63,0.0,0.0,45,0.00,,---,0.00,VWS V13.01,2013-05-28 12:35:00,
2013-05-28 07:40:00,54.9,33.9,29.84,ENE,57,0.0,0.0,45,0.00,,---,0.00,VWS V13.01,2013-05-28 12:40:00,
2013-05-28 07:45:00,54.9,33.9,29.84,ESE,108,0.0,0.0,45,0.00,,---,0.00,VWS V13.01,2013-05-28 12:45:00,
2013-05-28 07:50:00,54.9,33.9,29.84,East,100,0.0,0.0,45,0.00,,---,0.00,VWS V13.01,2013-05-28 12:50:00,
2013-05-28 07:55:00,54.9,33.9,29.84,NE,39,0.0,0.0,45,0.00,,---,0.00,VWS V13.01,2013-05-28 12:55:00,
2013-05-28 08:00:00,55.0,33.5,29.84,ENE,78,0.0,0.0,44,0.00,,---,0.00,VWS V13.01,2013-05-28 13:00:00,
2013-05-28 08:05:00,55.2,33.7,29.84,ENE,64,2.7,2.7,44,0.00,,---,0.00,VWS V13.01,2013-05-28 13:05:00,
2013-05-28 08:10:00,55.4,33.9,29.84,East,96,3.1,4.0,44,0.00,,---,0.00,VWS V13.01,2013-05-28 13:10:00,
2013-05-28 08:15:00,55.6,33.5,29.84,East,101,3.1,4.5,43,0.00,,---,0.00,VWS V13.01,2013-05-28 13:15:00,
2013-05-28 08:20:00,55.9,33.8,29.84,ENE,69,4.5,4.5,43,0.00,,---,0.00,VWS V13.01,2013-05-28 13:20:00,
2013-05-28 08:26:00,56.1,34.0,29.84,ENE,71,2.7,4.0,43,0.00,,---,0.00,VWS V13.01,2013-05-28 13:26:00,
2013-05-28 08:31:00,56.3,34.1,29.84,ENE,68,0.0,0.0,43,0.00,,---,0.00,VWS V13.01,2013-05-28 13:31:00,
2013-05-28 08:36:00,56.3,33.5,29.84,East,101,3.6,5.6,42,0.00,,---,0.00,VWS V13.01,2013-05-28 13:36:00,
2013-05-28 08:41:00,56.5,33.7,29.84,SSE,167,3.6,4.5,42,0.00,,---,0.00,VWS V13.01,2013-05-28 13:41:00,
2013-05-28 08:46:00,56.5,34.3,29.84,East,96,4.5,4.7,43,0.00,,---,0.00,VWS V13.01,2013-05-28 13:46:00,
2013-05-28 08:51:00,56.5,33.7,29.84,East,101,3.1,3.6,42,0.00,,---,0.00,VWS V13.01,2013-05-28 13:51:00,
2013-05-28 08:56:00,56.7,33.8,29.84,East,97,3.1,3.1,42,0.00,,---,0.00,VWS V13.01,2013-05-28 13:56:00,
2013-05-28 09:01:00,56.7,33.8,29.84,East,99,2.7,3.6,42,0.00,,---,0.00,VWS V13.01,2013-05-28 14:01:00,
2013-05-28 09:06:00,56.7,34.4,29.84,ENE,76,3.6,3.6,43,0.00,,---,0.00,VWS V13.01,2013-05-28 14:06:00,
2013-05-28 09:12:00,56.7,33.8,29.84,East,80,3.1,4.5,42,0.00,,---,0.00,VWS V13.01,2013-05-28 14:12:00,
2013-05-28 09:17:00,56.7,33.8,29.84,ENE,59,0.0,0.0,42,0.00,,---,0.00,VWS V13.01,2013-05-28 14:17:00,
2013-05-28 09:22:00,56.8,34.0,29.84,East,100,2.7,3.6,42,0.00,,---,0.00,VWS V13.01,2013-05-28 14:22:00,
2013-05-28 09:27:00,56.8,34.0,29.84,ENE,58,0.0,0.0,42,0.00,,---,0.00,VWS V13.01,2013-05-28 14:27:00,
2013-05-28 09:32:00,57.0,33.6,29.84,NE,54,3.6,4.7,41,0.00,,---,0.00,VWS V13.01,2013-05-28 14:32:00,
2013-05-28 09:37:00,57.2,33.7,29.84,SE,124,0.0,4.5,41,0.00,,---,0.00,VWS V13.01,2013-05-28 14:37:00,
2013-05-28 09:42:00,57.2,33.7,29.84,ESE,104,4.5,4.5,41,0.00,,---,0.00,VWS V13.01,2013-05-28 14:42:00,
2013-05-28 09:47:00,57.0,33.6,29.84,North,8,3.6,3.6,41,0.00,,---,0.00,VWS V13.01,2013-05-28 14:47:00,
2013-05-28 09:52:00,57.2,33.7,29.84,East,100,0.0,4.5,41,0.00,,---,0.00,VWS V13.01,2013-05-28 14:52:00,
2013-05-28 09:57:00,57.4,33.9,29.81,NE,50,3.1,3.1,41,0.00,,---,0.00,VWS V13.01,2013-05-28 14:57:00,
2013-05-28 10:02:00,57.4,33.9,29.81,NNW,340,3.6,3.6,41,0.00,,---,0.00,VWS V13.01,2013-05-28 15:02:00,
2013-05-28 10:07:00,57.6,34.1,29.81,ESE,108,3.1,4.7,41,0.00,,---,0.00,VWS V13.01,2013-05-28 15:07:00,
2013-05-28 10:13:00,57.6,34.1,29.81,NE,39,4.5,4.5,41,0.00,,---,0.00,VWS V13.01,2013-05-28 15:13:00,
2013-05-28 10:18:00,57.6,33.4,29.81,ESE,111,3.6,4.7,40,0.00,,---,0.00,VWS V13.01,2013-05-28 15:18:00,
2013-05-28 10:23:00,57.6,33.4,29.81,East,86,4.0,4.0,40,0.00,,---,0.00,VWS V13.01,2013-05-28 15:23:00,
2013-05-28 10:28:00,57.6,33.4,29.81,ENE,61,0.0,4.7,40,0.00,,---,0.00,VWS V13.01,2013-05-28 15:28:00,
2013-05-28 10:33:00,57.6,33.4,29.81,NE,50,4.0,4.5,40,0.00,,---,0.00,VWS V13.01,2013-05-28 15:33:00,
2013-05-28 10:38:00,57.7,33.0,29.81,NNE,20,5.6,6.5,39,0.00,,---,0.00,VWS V13.01,2013-05-28 15:38:00,
2013-05-28 10:43:00,57.9,33.8,29.81,East,86,4.0,6.0,40,0.00,,---,0.00,VWS V13.01,2013-05-28 15:43:00,
2013-05-28 10:48:00,58.1,33.3,29.81,East,84,4.7,4.7,39,0.00,,---,0.00,VWS V13.01,2013-05-28 15:48:00,
2013-05-28 10:53:00,58.8,33.9,29.81,NNE,18,4.0,4.0,39,0.00,,---,0.00,VWS V13.01,2013-05-28 15:53:00,
2013-05-28 10:58:00,59.5,33.3,29.81,North,8,4.0,4.5,37,0.00,,---,0.00,VWS V13.01,2013-05-28 15:58:00,
2013-05-28 11:04:00,60.1,33.8,29.81,NNE,23,6.5,6.5,37,0.00,,---,0.00,VWS V13.01,2013-05-28 16:04:00,
2013-05-28 11:09:00,60.8,34.4,29.81,ENE,76,3.1,5.6,37,0.00,,---,0.00,VWS V13.01,2013-05-28 16:09:00,
2013-05-28 11:14:00,61.3,34.2,29.81,NNE,23,6.0,7.4,36,0.00,,---,0.00,VWS V13.01,2013-05-28 16:14:00,
2013-05-28 11:19:00,61.3,34.2,29.81,NE,43,4.7,6.5,36,0.00,,---,0.00,VWS V13.01,2013-05-28 16:19:00,
2013-05-28 11:24:00,61.5,34.3,29.81,East,90,2.7,3.6,36,0.00,,---,0.00,VWS V13.01,2013-05-28 16:24:00,
2013-05-28 11:29:00,62.2,35.7,29.81,South,187,3.6,4.5,37,0.00,,---,0.00,VWS V13.01,2013-05-28 16:29:00,
2013-05-28 11:34:00,63.0,34.9,29.81,East,80,4.7,5.1,35,0.00,,---,0.00,VWS V13.01,2013-05-28 16:34:00,
2013-05-28 11:39:00,63.3,35.2,29.81,NE,54,4.5,4.5,35,0.00,,---,0.00,VWS V13.01,2013-05-28 16:39:00,
2013-05-28 11:44:00,63.7,35.5,29.81,East,90,4.5,4.5,35,0.00,,---,0.00,VWS V13.01,2013-05-28 16:44:00,
2013-05-28 11:50:00,64.0,35.9,29.81,ESE,111,3.6,3.6,35,0.00,,---,0.00,VWS V13.01,2013-05-28 16:50:00,
2013-05-28 11:55:00,64.2,36.0,29.81,ESE,105,4.5,4.5,35,0.00,,---,0.00,VWS V13.01,2013-05-28 16:55:00,
2013-05-28 12:00:00,64.2,36.0,29.81,WNW,292,3.1,4.0,35,0.00,,---,0.00,VWS V13.01,2013-05-28 17:00:00,
2013-05-28 12:05:00,64.2,36.0,29.81,SSE,156,5.1,5.6,35,0.00,,---,0.00,VWS V13.01,2013-05-28 17:05:00,
2013-05-28 12:10:00,64.0,35.9,29.81,East,80,4.0,4.0,35,0.00,,---,0.00,VWS V13.01,2013-05-28 17:10:00,
2013-05-28 12:15:00,64.4,35.5,29.78,SE,131,4.5,4.7,34,0.00,,---,0.00,VWS V13.01,2013-05-28 17:15:00,
2013-05-28 12:20:00,64.2,36.0,29.78,NE,39,4.5,5.1,35,0.00,,---,0.00,VWS V13.01,2013-05-28 17:20:00,
2013-05-28 12:25:00,64.0,35.9,29.78,SE,127,0.0,3.6,35,0.00,,---,0.00,VWS V13.01,2013-05-28 17:25:00,
2013-05-28 12:30:00,64.4,36.2,29.78,ENE,66,3.6,3.6,35,0.00,,---,0.00,VWS V13.01,2013-05-28 17:30:00,
2013-05-28 12:35:00,64.4,36.2,29.78,NNE,30,4.7,4.7,35,0.00,,---,0.00,VWS V13.01,2013-05-28 17:35:00,
2013-05-28 12:41:00,64.4,35.5,29.78,SE,131,2.7,2.7,34,0.00,,---,0.00,VWS V13.01,2013-05-28 17:41:00,
2013-05-28 12:46:00,64.6,35.6,29.78,SSW,213,0.0,4.7,34,0.00,,---,0.00,VWS V13.01,2013-05-28 17:46:00,
2013-05-28 12:51:00,64.8,35.8,29.78,East,91,3.1,5.6,34,0.00,,---,0.00,VWS V13.01,2013-05-28 17:51:00,
2013-05-28 12:56:00,64.9,35.9,29.78,ENE,77,3.1,5.1,34,0.00,,---,0.00,VWS V13.01,2013-05-28 17:56:00,
2013-05-28 13:01:00,65.1,36.1,29.78,East,89,4.7,4.7,34,0.00,,---,0.00,VWS V13.01,2013-05-28 18:01:00,
2013-05-28 13:06:00,64.9,35.9,29.78,NE,52,4.5,4.5,34,0.00,,---,0.00,VWS V13.01,2013-05-28 18:06:00,
2013-05-28 13:11:00,65.1,36.1,29.78,ESE,115,5.6,5.6,34,0.00,,---,0.00,VWS V13.01,2013-05-28 18:11:00,
2013-05-28 13:16:00,65.8,36.7,29.78,NE,56,5.1,5.6,34,0.00,,---,0.00,VWS V13.01,2013-05-28 18:16:00,
2013-05-28 13:21:00,65.8,36.7,29.78,ENE,68,4.0,4.0,34,0.00,,---,0.00,VWS V13.01,2013-05-28 18:21:00,
2013-05-28 13:26:00,65.5,36.4,29.78,NE,40,2.7,3.6,34,0.00,,---,0.00,VWS V13.01,2013-05-28 18:26:00,
2013-05-28 13:31:00,65.7,36.6,29.78,NE,39,4.5,5.1,34,0.00,,---,0.00,VWS V13.01,2013-05-28 18:31:00,
2013-05-28 13:37:00,65.8,36.7,29.78,ESE,104,4.5,4.5,34,0.00,,---,0.00,VWS V13.01,2013-05-28 18:37:00,
2013-05-28 13:42:00,66.2,36.3,29.78,SE,146,4.0,5.6,33,0.00,,---,0.00,VWS V13.01,2013-05-28 18:42:00,
2013-05-28 13:47:00,66.6,36.6,29.78,NE,40,4.5,6.0,33,0.00,,---,0.00,VWS V13.01,2013-05-28 18:47:00,
2013-05-28 13:52:00,66.9,36.9,29.78,ESE,113,4.5,4.5,33,0.00,,---,0.00,VWS V13.01,2013-05-28 18:52:00,
2013-05-28 13:57:00,67.1,37.1,29.78,East,82,0.0,4.0,33,0.00,,---,0.00,VWS V13.01,2013-05-28 18:57:00,
2013-05-28 14:02:00,67.3,37.2,29.78,East,89,5.1,5.1,33,0.00,,---,0.00,VWS V13.01,2013-05-28 19:02:00,
2013-05-28 14:07:00,66.9,36.9,29.78,ENE,67,6.5,6.5,33,0.00,,---,0.00,VWS V13.01,2013-05-28 19:07:00,
2013-05-28 14:12:00,66.6,36.6,29.78,ESE,118,3.6,4.7,33,0.00,,---,0.00,VWS V13.01,2013-05-28 19:12:00,
2013-05-28 14:17:00,66.2,36.3,29.78,East,83,0.0,3.6,33,0.00,,---,0.00,VWS V13.01,2013-05-28 19:17:00,
2013-05-28 14:22:00,66.4,36.4,29.78,ENE,65,3.6,4.7,33,0.00,,---,0.00,VWS V13.01,2013-05-28 19:22:00,
2013-05-28 14:27:00,66.2,36.3,29.78,NNE,33,4.0,5.1,33,0.00,,---,0.00,VWS V13.01,2013-05-28 19:27:00,
2013-05-28 14:33:00,65.7,36.6,29.78,East,100,4.5,4.5,34,0.00,,---,0.00,VWS V13.01,2013-05-28 19:33:00,
2013-05-28 14:38:00,65.5,36.4,29.78,NE,45,4.0,4.0,34,0.00,,---,0.00,VWS V13.01,2013-05-28 19:38:00,
2013-05-28 14:43:00,65.7,36.6,29.78,ENE,75,4.7,4.7,34,0.00,,---,0.00,VWS V13.01,2013-05-28 19:43:00,
2013-05-28 14:48:00,65.5,36.4,29.78,ESE,112,4.0,4.7,34,0.00,,---,0.00,VWS V13.01,2013-05-28 19:48:00,
2013-05-28 14:53:00,65.5,36.4,29.78,East,96,4.0,4.7,34,0.00,,---,0.00,VWS V13.01,2013-05-28 19:53:00,
2013-05-28 14:58:00,65.3,36.2,29.78,ESE,103,4.0,4.5,34,0.00,,---,0.00,VWS V13.01,2013-05-28 19:58:00,
2013-05-28 15:03:00,64.8,35.8,29.78,NE,42,3.1,4.7,34,0.00,,---,0.00,VWS V13.01,2013-05-28 20:03:00,
2013-05-28 15:08:00,64.8,35.8,29.78,NE,56,4.5,5.6,34,0.00,,---,0.00,VWS V13.01,2013-05-28 20:08:00,
2013-05-28 15:13:00,64.4,35.5,29.78,ENE,65,4.0,4.5,34,0.00,,---,0.00,VWS V13.01,2013-05-28 20:13:00,
2013-05-28 15:18:00,64.2,36.0,29.78,ENE,74,4.7,6.5,35,0.00,,---,0.00,VWS V13.01,2013-05-28 20:18:00,
2013-05-28 15:23:00,63.9,35.0,29.78,ESE,105,4.5,4.5,34,0.00,,---,0.00,VWS V13.01,2013-05-28 20:23:00,
2013-05-28 15:28:00,63.5,34.7,29.78,ENE,70,4.7,5.6,34,0.00,,---,0.00,VWS V13.01,2013-05-28 20:28:00,
2013-05-28 15:34:00,63.3,35.2,29.78,ESE,110,6.0,6.0,35,0.00,,---,0.00,VWS V13.01,2013-05-28 20:34:00,
2013-05-28 15:38:00,63.0,34.2,29.78,ESE,102,4.7,6.0,34,0.00,,---,0.00,VWS V13.01,2013-05-28 20:38:00,
2013-05-28 15:43:00,62.2,34.3,29.78,ESE,103,4.5,4.7,35,0.00,,---,0.00,VWS V13.01,2013-05-28 20:43:00,
2013-05-28 15:49:00,61.7,33.8,29.78,NE,51,4.0,4.7,35,0.00,,---,0.00,VWS V13.01,2013-05-28 20:49:00,
2013-05-28 15:54:00,61.3,33.5,29.78,East,88,4.5,6.0,35,0.00,,---,0.00,VWS V13.01,2013-05-28 20:54:00,
2013-05-28 15:59:00,61.0,33.2,29.78,ENE,62,4.7,4.7,35,0.00,,---,0.00,VWS V13.01,2013-05-28 20:59:00,
2013-05-28 16:04:00,60.6,33.5,29.78,NE,55,4.7,6.0,36,0.00,,---,0.00,VWS V13.01,2013-05-28 21:04:00,
2013-05-28 16:09:00,60.1,33.1,29.78,NNE,30,4.7,4.7,36,0.00,,---,0.00,VWS V13.01,2013-05-28 21:09:00,
2013-05-28 16:14:00,59.7,33.4,29.78,NE,45,6.0,6.0,37,0.00,,---,0.00,VWS V13.01,2013-05-28 21:14:00,
2013-05-28 16:19:00,59.5,33.3,29.78,ESE,104,4.0,5.1,37,0.00,,---,0.00,VWS V13.01,2013-05-28 21:19:00,
2013-05-28 16:24:00,59.7,33.4,29.78,East,98,4.7,4.7,37,0.00,,---,0.00,VWS V13.01,2013-05-28 21:24:00,
2013-05-28 16:29:00,59.7,32.7,29.78,East,91,4.7,5.1,36,0.00,,---,0.00,VWS V13.01,2013-05-28 21:29:00,
2013-05-28 16:34:00,59.2,33.0,29.78,NE,51,5.6,5.6,37,0.00,,---,0.00,VWS V13.01,2013-05-28 21:34:00,
2013-05-28 16:39:00,59.0,32.8,29.78,NE,53,5.1,5.1,37,0.00,,---,0.00,VWS V13.01,2013-05-28 21:39:00,
2013-05-28 16:44:00,58.5,32.3,29.78,NE,46,5.1,5.1,37,0.00,,---,0.00,VWS V13.01,2013-05-28 21:44:00,
2013-05-28 16:49:00,58.1,32.0,29.78,NE,56,4.7,5.1,37,0.00,,---,0.00,VWS V13.01,2013-05-28 21:49:00,
2013-05-28 16:54:00,57.9,31.8,29.78,ENE,75,4.7,4.7,37,0.00,,---,0.00,VWS V13.01,2013-05-28 21:54:00,
2013-05-28 16:59:00,57.9,31.8,29.78,East,98,7.8,7.8,37,0.00,,---,0.00,VWS V13.01,2013-05-28 21:59:00,
2013-05-28 17:04:00,57.6,31.5,29.78,East,83,3.6,4.5,37,0.00,,---,0.00,VWS V13.01,2013-05-28 22:04:00,
2013-05-28 17:09:00,57.4,30.7,29.78,East,99,5.6,5.6,36,0.00,,---,0.00,VWS V13.01,2013-05-28 22:09:00,
2013-05-28 17:15:00,57.2,30.5,29.78,NNE,27,4.7,5.1,36,0.00,,---,0.00,VWS V13.01,2013-05-28 22:15:00,
2013-05-28 17:20:00,57.0,30.4,29.78,NNE,29,4.5,5.1,36,0.00,,---,0.00,VWS V13.01,2013-05-28 22:20:00,
2013-05-28 17:25:00,56.8,30.2,29.78,NE,35,0.0,0.0,36,0.00,,---,0.00,VWS V13.01,2013-05-28 22:25:00,
2013-05-28 17:30:00,56.7,30.0,29.78,NE,38,4.7,4.7,36,0.00,,---,0.00,VWS V13.01,2013-05-28 22:30:00,
2013-05-28 17:35:00,56.1,29.5,29.78,NNE,32,3.1,5.1,36,0.00,,---,0.00,VWS V13.01,2013-05-28 22:35:00,
2013-05-28 17:40:00,55.9,29.4,29.78,NE,47,3.6,4.7,36,0.00,,---,0.00,VWS V13.01,2013-05-28 22:40:00,
2013-05-28 17:45:00,55.9,29.4,29.78,ENE,70,0.0,3.6,36,0.00,,---,0.00,VWS V13.01,2013-05-28 22:45:00,
2013-05-28 17:50:00,55.9,29.4,29.78,ENE,58,2.7,6.0,36,0.00,,---,0.00,VWS V13.01,2013-05-28 22:50:00,
2013-05-28 17:55:00,55.8,29.2,29.78,NE,36,4.5,4.7,36,0.00,,---,0.00,VWS V13.01,2013-05-28 22:55:00,
2013-05-28 18:00:00,55.8,29.2,29.78,NNE,13,4.0,4.7,36,0.00,,---,0.00,VWS V13.01,2013-05-28 23:00:00,
2013-05-28 18:06:00,55.9,29.4,29.78,ENE,59,2.7,2.7,36,0.00,,---,0.00,VWS V13.01,2013-05-28 23:06:00,
2013-05-28 18:11:00,55.9,29.4,29.78,NNE,30,3.1,4.0,36,0.00,,---,0.00,VWS V13.01,2013-05-28 23:11:00,
2013-05-28 18:16:00,55.9,29.4,29.78,NNE,26,3.1,3.1,36,0.00,,---,0.00,VWS V13.01,2013-05-28 23:16:00,
2013-05-28 18:21:00,55.8,29.2,29.78,ENE,57,4.0,4.7,36,0.00,,---,0.00,VWS V13.01,2013-05-28 23:21:00,
2013-05-28 18:26:00,55.8,29.2,29.78,NE,49,4.7,4.7,36,0.00,,---,0.00,VWS V13.01,2013-05-28 23:26:00,
2013-05-28 18:31:00,55.9,30.1,29.78,NNE,33,4.7,5.1,37,0.00,,---,0.00,VWS V13.01,2013-05-28 23:31:00,
2013-05-28 18:36:00,55.9,30.1,29.78,NE,55,0.0,3.6,37,0.00,,---,0.00,VWS V13.01,2013-05-28 23:36:00,
2013-05-28 18:41:00,56.3,30.4,29.78,NE,46,4.0,4.0,37,0.00,,---,0.00,VWS V13.01,2013-05-28 23:41:00,
2013-05-28 18:46:00,56.3,29.7,29.78,NE,36,4.5,4.7,36,0.00,,---,0.00,VWS V13.01,2013-05-28 23:46:00,
2013-05-28 18:51:00,56.3,29.7,29.78,ENE,77,3.6,4.7,36,0.00,,---,0.00,VWS V13.01,2013-05-28 23:51:00,
2013-05-28 18:56:00,56.1,29.5,29.78,NE,38,0.0,0.0,36,0.00,,---,0.00,VWS V13.01,2013-05-28 23:56:00,
2013-05-28 19:01:00,56.1,30.2,29.78,NE,52,4.5,4.7,37,0.00,,---,0.00,VWS V13.01,2013-05-29 00:01:00,
2013-05-28 19:06:00,55.9,30.1,29.78,East,100,0.0,4.5,37,0.00,,---,0.00,VWS V13.01,2013-05-29 00:06:00,
2013-05-28 19:11:00,55.9,30.1,29.78,NE,35,0.0,0.0,37,0.00,,---,0.00,VWS V13.01,2013-05-29 00:11:00,
2013-05-28 19:16:00,55.9,30.1,29.78,North,10,2.7,4.0,37,0.00,,---,0.00,VWS V13.01,2013-05-29 00:16:00,
2013-05-28 19:21:00,55.9,30.1,29.78,NE,39,0.0,0.0,37,0.00,,---,0.00,VWS V13.01,2013-05-29 00:21:00,
2013-05-28 19:26:00,55.8,29.9,29.78,ENE,73,0.0,0.0,37,0.00,,---,0.00,VWS V13.01,2013-05-29 00:26:00,
2013-05-28 19:31:00,55.8,29.9,29.78,ENE,73,0.0,0.0,37,0.00,,---,0.00,VWS V13.01,2013-05-29 00:31:00,
2013-05-28 19:36:00,55.6,29.1,29.78,NNE,19,0.0,3.6,36,0.00,,---,0.00,VWS V13.01,2013-05-29 00:36:00,
2013-05-28 19:41:00,55.4,28.9,29.78,ENE,57,0.0,0.0,36,0.00,,---,0.00,VWS V13.01,2013-05-29 00:41:00,
2013-05-28 19:46:00,55.4,29.6,29.78,NE,53,0.0,0.0,37,0.00,,---,0.00,VWS V13.01,2013-05-29 00:46:00,
2013-05-28 19:51:00,55.4,29.6,29.78,NE,50,4.0,4.0,37,0.00,,---,0.00,VWS V13.01,2013-05-29 00:51:00,
2013-05-28 19:56:00,55.4,28.9,29.78,ESE,105,0.0,0.0,36,0.00,,---,0.00,VWS V13.01,2013-05-29 00:56:00,
2013-05-28 20:01:00,55.4,28.9,29.78,NE,47,0.0,0.0,36,0.00,,---,0.00,VWS V13.01,2013-05-29 01:01:00,
2013-05-28 20:06:00,55.6,29.1,29.78,ESE,116,0.0,0.0,36,0.00,,---,0.00,VWS V13.01,2013-05-29 01:06:00,
2013-05-28 20:11:00,55.4,28.9,29.78,NE,41,4.0,4.0,36,0.00,,---,0.00,VWS V13.01,2013-05-29 01:11:00,
2013-05-28 20:16:00,55.2,29.4,29.75,NE,41,0.0,0.0,37,0.00,,---,0.00,VWS V13.01,2013-05-29 01:16:00,
2013-05-28 20:21:00,55.0,29.3,29.75,NE,41,0.0,0.0,37,0.00,,---,0.00,VWS V13.01,2013-05-29 01:21:00,
2013-05-28 20:26:00,55.0,29.3,29.75,ENE,59,2.7,3.6,37,0.00,,---,0.00,VWS V13.01,2013-05-29 01:26:00,
2013-05-28 20:31:00,54.9,29.1,29.75,East,90,0.0,0.0,37,0.00,,---,0.00,VWS V13.01,2013-05-29 01:31:00,
2013-05-28 20:36:00,54.7,28.9,29.75,East,90,0.0,0.0,37,0.00,,---,0.00,VWS V13.01,2013-05-29 01:36:00,
2013-05-28 20:41:00,54.5,28.8,29.75,East,90,0.0,0.0,37,0.00,,---,0.00,VWS V13.01,2013-05-29 01:41:00,
2013-05-28 20:46:00,54.1,28.5,29.75,East,92,0.0,0.0,37,0.00,,---,0.00,VWS V13.01,2013-05-29 01:46:00,
2013-05-28 20:51:00,54.0,28.3,29.75,East,92,0.0,0.0,37,0.00,,---,0.00,VWS V13.01,2013-05-29 01:51:00,
2013-05-28 20:56:00,53.8,28.1,29.75,East,92,0.0,0.0,37,0.00,,---,0.00,VWS V13.01,2013-05-29 01:56:00,
2013-05-28 21:01:00,53.8,28.8,29.78,East,92,0.0,0.0,38,0.00,,---,0.00,VWS V13.01,2013-05-29 02:01:00,
2013-05-28 21:06:00,53.8,28.8,29.78,East,92,0.0,0.0,38,0.00,,---,0.00,VWS V13.01,2013-05-29 02:06:00,
2013-05-28 21:11:00,53.6,28.6,29.78,East,92,0.0,0.0,38,0.00,,---,0.00,VWS V13.01,2013-05-29 02:11:00,
2013-05-28 21:16:00,53.6,28.6,29.78,East,92,0.0,0.0,38,0.00,,---,0.00,VWS V13.01,2013-05-29 02:16:00,
2013-05-28 21:21:00,53.6,28.6,29.78,East,92,0.0,0.0,38,0.00,,---,0.00,VWS V13.01,2013-05-29 02:21:00,
2013-05-28 21:26:00,53.6,28.6,29.78,East,92,0.0,0.0,38,0.00,,---,0.00,VWS V13.01,2013-05-29 02:26:00,
2013-05-28 21:31:00,53.6,28.6,29.78,East,92,0.0,0.0,38,0.00,,---,0.00,VWS V13.01,2013-05-29 02:31:00,
2013-05-28 21:36:00,53.6,28.6,29.78,East,92,0.0,0.0,38,0.00,,---,0.00,VWS V13.01,2013-05-29 02:36:00,
2013-05-28 21:41:00,53.6,29.3,29.78,East,92,0.0,0.0,39,0.00,,---,0.00,VWS V13.01,2013-05-29 02:41:00,
2013-05-28 21:46:00,53.6,29.3,29.78,East,92,0.0,0.0,39,0.00,,---,0.00,VWS V13.01,2013-05-29 02:46:00,
2013-05-28 21:51:00,53.6,29.3,29.78,East,92,0.0,0.0,39,0.00,,---,0.00,VWS V13.01,2013-05-29 02:51:00,
2013-05-28 21:56:00,53.6,29.3,29.78,East,92,0.0,0.0,39,0.00,,---,0.00,VWS V13.01,2013-05-29 02:56:00,
2013-05-28 22:01:00,53.6,29.3,29.75,East,92,0.0,0.0,39,0.00,,---,0.00,VWS V13.01,2013-05-29 03:01:00,
2013-05-28 22:06:00,53.6,29.3,29.75,East,92,0.0,0.0,39,0.00,,---,0.00,VWS V13.01,2013-05-29 03:06:00,
2013-05-28 22:11:00,53.6,29.3,29.75,East,92,0.0,0.0,39,0.00,,---,0.00,VWS V13.01,2013-05-29 03:11:00,
2013-05-28 22:16:00,53.6,29.3,29.75,East,92,0.0,0.0,39,0.00,,---,0.00,VWS V13.01,2013-05-29 03:16:00,
2013-05-28 22:21:00,53.6,29.3,29.75,East,92,0.0,0.0,39,0.00,,---,0.00,VWS V13.01,2013-05-29 03:21:00,
2013-05-28 22:26:00,53.6,29.3,29.78,East,92,0.0,0.0,39,0.00,,---,0.00,VWS V13.01,2013-05-29 03:26:00,
2013-05-28 22:31:00,53.6,29.3,29.78,East,92,0.0,0.0,39,0.00,,---,0.00,VWS V13.01,2013-05-29 03:31:00,
2013-05-28 22:36:00,53.6,29.3,29.78,East,92,0.0,0.0,39,0.00,,---,0.00,VWS V13.01,2013-05-29 03:36:00,
2013-05-28 22:41:00,53.6,29.3,29.78,East,92,0.0,0.0,39,0.00,,---,0.00,VWS V13.01,2013-05-29 03:41:00,
2013-05-28 22:46:00,53.6,29.9,29.78,East,92,0.0,0.0,40,0.00,,---,0.00,VWS V13.01,2013-05-29 03:46:00,
2013-05-28 22:51:00,53.6,29.9,29.78,East,92,0.0,0.0,40,0.00,,---,0.00,VWS V13.01,2013-05-29 03:51:00,
2013-05-28 22:57:00,53.6,29.3,29.78,East,92,0.0,0.0,39,0.00,,---,0.00,VWS V13.01,2013-05-29 03:57:00,
2013-05-28 23:01:00,53.6,29.9,29.78,East,92,0.0,0.0,40,0.00,,---,0.00,VWS V13.01,2013-05-29 04:01:00,
2013-05-28 23:02:00,53.6,29.9,29.78,East,92,0.0,0.0,40,0.00,,---,0.00,VWS V13.01,2013-05-29 04:02:00,
2013-05-28 23:07:00,53.6,29.3,29.78,East,92,0.0,0.0,39,0.00,,---,0.00,VWS V13.01,2013-05-29 04:07:00,
2013-05-28 23:12:00,53.6,29.9,29.78,East,92,0.0,0.0,40,0.00,,---,0.00,VWS V13.01,2013-05-29 04:12:00,
2013-05-28 23:17:00,53.4,32.1,29.78,SSW,199,3.6,3.6,44,0.00,,---,0.00,VWS V13.01,2013-05-29 04:17:00,
2013-05-28 23:22:00,53.1,32.8,29.78,SSW,199,0.0,0.0,46,0.00,,---,0.00,VWS V13.01,2013-05-29 04:22:00,
2013-05-28 23:27:00,52.3,32.7,29.78,SSW,199,0.0,0.0,47,0.00,,---,0.00,VWS V13.01,2013-05-29 04:27:00,
2013-05-28 23:33:00,51.6,33.1,29.78,SSW,199,0.0,0.0,49,0.00,,---,0.00,VWS V13.01,2013-05-29 04:33:00,
2013-05-28 23:38:00,51.3,33.3,29.78,SSW,199,0.0,0.0,50,0.00,,---,0.00,VWS V13.01,2013-05-29 04:38:00,
2013-05-28 23:43:00,50.9,32.9,29.78,SSW,199,0.0,0.0,50,0.00,,---,0.00,VWS V13.01,2013-05-29 04:43:00,
2013-05-28 23:48:00,50.7,32.8,29.78,SSW,199,0.0,0.0,50,0.00,,---,0.00,VWS V13.01,2013-05-29 04:48:00,
2013-05-28 23:53:00,50.5,33.1,29.78,SSW,199,0.0,0.0,51,0.00,,---,0.00,VWS V13.01,2013-05-29 04:53:00,
2013-05-28 23:58:00,50.4,32.9,29.78,SSW,199,0.0,0.0,51,0.00,,---,0.00,VWS V13.01,2013-05-29 04:58:00,